TimeEST,TemperatureF,Dew PointF,Humidity,Sea Level PressureIn,VisibilityMPH,Wind Direction,Wind SpeedMPH,Gust SpeedMPH,PrecipitationIn,Events,Conditions,WindDirDegrees,DateUTC
12:17 AM,10.4,6.1,83,29.91,-9999.0,NNW,21.9,32.2,N/A,,Unknown,340,2013-02-20 05:17:00
12:36 AM,10.4,6.1,83,29.92,-9999.0,NNW,21.9,32.2,N/A,,Unknown,340,2013-02-20 05:36:00
12:57 AM,10.4,6.1,83,29.93,-9999.0,NNW,23.0,35.7,N/A,,Unknown,340,2013-02-20 05:57:00
1:17 AM,10.4,5.9,82,29.94,-9999.0,NNW,19.6,36.8,N/A,,Unknown,340,2013-02-20 06:17:00
1:36 AM,10.2,6.1,83,29.95,-9999.0,NNW,19.6,28.8,N/A,,Overcast,340,2013-02-20 06:36:00
1:57 AM,10.2,5.7,82,29.96,-9999.0,NNW,24.2,34.5,N/A,,Unknown,340,2013-02-20 06:57:00
2:16 AM,10.2,5.5,81,29.96,-9999.0,NNW,24.2,32.2,N/A,,Overcast,340,2013-02-20 07:16:00
2:37 AM,10.0,5.7,83,29.98,-9999.0,NNW,18.4,29.9,N/A,,Unknown,340,2013-02-20 07:37:00
2:57 AM,9.9,5.7,83,29.99,-9999.0,NNW,19.6,29.9,N/A,,Unknown,340,2013-02-20 07:57:00
3:16 AM,10.0,5.7,83,29.99,-9999.0,North,20.7,27.6,N/A,,Unknown,350,2013-02-20 08:16:00
3:37 AM,9.7,5.7,84,30.00,-9999.0,NNW,17.3,26.5,N/A,,Overcast,340,2013-02-20 08:37:00
3:57 AM,9.5,5.4,83,30.00,-9999.0,NNW,19.6,32.2,N/A,,Unknown,340,2013-02-20 08:57:00
4:16 AM,9.5,5.5,84,30.01,-9999.0,North,21.9,28.8,N/A,,Unknown,350,2013-02-20 09:16:00
4:37 AM,9.9,5.7,83,30.03,-9999.0,NNW,19.6,29.9,N/A,,Unknown,340,2013-02-20 09:37:00
4:56 AM,9.9,5.7,83,30.03,-9999.0,NNW,18.4,25.3,N/A,,Unknown,340,2013-02-20 09:56:00
5:17 AM,10.4,5.0,79,30.04,-9999.0,NNW,19.6,34.5,N/A,,Overcast,340,2013-02-20 10:17:00
5:37 AM,10.0,5.5,82,30.05,-9999.0,NNW,24.2,34.5,N/A,,Overcast,340,2013-02-20 10:37:00
5:56 AM,9.9,5.7,83,30.06,-9999.0,NNW,21.9,32.2,N/A,,Overcast,340,2013-02-20 10:56:00
6:50 AM,10.4,5.0,79,30.09,1.5,NNW,23.0,34.5,N/A,Snow,Light Snow,340,2013-02-20 11:50:00
7:50 AM,10.4,5.0,79,30.12,0.8,NNW,25.3,34.5,N/A,Snow,Light Snow,340,2013-02-20 12:50:00
8:20 AM,10.4,6.8,85,30.13,0.5,NNW,23.0,33.4,N/A,Snow,Snow,340,2013-02-20 13:20:00
8:50 AM,10.4,6.8,85,30.14,0.5,North,21.9,29.9,N/A,Snow,Light Snow,350,2013-02-20 13:50:00
10:50 AM,12.2,6.8,79,30.17,0.5,North,19.6,35.7,N/A,Snow,Light Snow,350,2013-02-20 15:50:00
11:55 AM,12.2,8.6,85,30.19,0.5,NNW,18.4,27.6,N/A,Snow,Light Snow,340,2013-02-20 16:55:00
12:50 PM,14.0,10.4,86,30.19,0.8,NNW,17.3,27.6,N/A,Snow,Light Snow,340,2013-02-20 17:50:00
1:50 PM,14.0,8.6,79,30.21,0.8,NNW,20.7,29.9,N/A,Snow,Light Snow,340,2013-02-20 18:50:00
2:50 PM,14.0,8.6,79,30.22,1.2,NNW,19.6,28.8,N/A,Snow,Light Snow,340,2013-02-20 19:50:00
3:45 PM,14.0,8.6,79,30.22,1.2,North,19.6,26.5,N/A,Snow,Light Snow,350,2013-02-20 20:45:00
4:50 PM,14.0,8.6,79,30.25,2.5,NNW,20.7,25.3,N/A,Snow,Light Snow,330,2013-02-20 21:50:00
5:50 PM,14.0,8.6,79,30.29,4.0,NNW,11.5,18.4,N/A,Snow,Light Snow,340,2013-02-20 22:50:00
6:50 PM,12.2,6.8,79,30.32,7.0,NW,12.7,-,N/A,Snow,Light Snow,320,2013-02-20 23:50:00
7:50 PM,12.2,6.8,79,30.33,5.0,NNW,13.8,19.6,N/A,Snow,Light Snow,340,2013-02-21 00:50:00
8:50 PM,12.2,8.6,85,30.33,5.0,NNW,15.0,20.7,N/A,Snow,Light Snow,340,2013-02-21 01:50:00
9:45 PM,12.2,8.6,85,30.32,3.0,NNW,13.8,-,N/A,Snow,Light Snow,340,2013-02-21 02:45:00
10:17 PM,12.9,8.6,83,30.33,4.0,NNW,11.5,17.3,N/A,Snow,Light Snow,340,2013-02-21 03:17:00
10:37 PM,12.9,8.6,83,30.33,5.0,NNW,11.5,19.6,N/A,Snow,Light Snow,340,2013-02-21 03:37:00
10:56 PM,13.1,9.1,84,30.33,5.0,NNW,12.7,17.3,N/A,Snow,Light Snow,340,2013-02-21 03:56:00
11:17 PM,13.5,9.5,84,30.33,4.0,NNW,13.8,18.4,N/A,Snow,Light Snow,340,2013-02-21 04:17:00
11:37 PM,13.5,9.5,84,30.33,4.0,North,13.8,-,N/A,Snow,Light Snow,350,2013-02-21 04:37:00
11:56 PM,13.5,9.5,84,30.32,4.0,North,15.0,-,N/A,Snow,Light Snow,350,2013-02-21 04:56:00